sat.trackr.live / text

‹ back to catalog

STARLINK-35264

NORAD 65900 · 2025-224U

PAYLOAD ACTIVE UNKNOWN

§ Identity

Operator
Country
US
Launch date
2025-10-07
Launch site
AFETR
Launch vehicle
Mass (kg)
RCS (m²)

Purposes: comms

External: N2YO · Heavens-Above · Gunter

§ Orbital elements

Epoch: 2026-05-25T01:24:29.724768Z

Period
93.85 min
Inclination
53.1595°
Eccentricity
0.0001092
Mean motion
15.34416714 rev/d
Perigee alt
461.9 km
Apogee alt
463.4 km
Semi-major
6,840.8 km
B*
9.0498e-4
RAAN
15.4193°
Arg perigee
98.1216°
Mean anomaly
261.9911°
Rev number
3,657

§ Raw data

STARLINK-352641 65900U 25224U   26145.05867737  .00030340  00000+0  90498-3 0  99982 65900  53.1595  15.4193 0001092  98.1216 261.9911 15.34416714 36578

JSON: /api/v1/satellites/65900 · /tle

For live sub-satellite position, see the globe view (requires WebGL).

§ Visibility from observer

Set your observer location to see the next 7 days of passes ≥ 10°. The values pass through the URL so the page stays shareable.

No JS? Fill the form by hand. The geolocation button needs JavaScript.